Location: Mason Neck State Park
(38.6428°N, 77.1981°W)
Time: 13:24:28
(UTC-04:00)

ISS - Visible Passes

Search period start: 23 October 2017 00:00
Search period end: 02 November 2017 00:00
Orbit: 400 x 408 km, 51.6° (Epoch: 24 October)

Date Brightness Start Highest point End Pass type
(mag) Time Alt. Az. Time Alt. Az. Time Alt. Az.
27 Oct -0.5 06:31:04 10° SSE 06:32:07 11° SE 06:33:11 10° ESE visible
29 Oct -1.8 06:20:40 10° SSW 06:23:30 28° SE 06:26:21 10° ENE visible
30 Oct -1.0 05:30:02 12° SSE 05:31:16 14° SE 05:33:06 10° E visible
30 Oct -3.6 07:04:13 10° WSW 07:07:23 52° NW 07:10:36 10° NE visible
31 Oct -3.8 06:13:25 28° SW 06:14:57 77° SE 06:18:13 10° NE visible
01 Nov -1.5 05:23:50 25° E 05:23:50 25° E 05:25:36 10° ENE visible
01 Nov -2.6 06:56:31 11° W 06:59:06 25° NNW 07:01:53 10° NNE visible
